Time,TemperatureF,DewpointF,PressureIn,WindDirection,WindDirectionDegrees,WindSpeedMPH,WindSpeedGustMPH,Humidity,HourlyPrecipIn,Conditions,Clouds,dailyrainin,SoftwareType,DateUTC
2013-03-02 00:01:00,31.0,30.0,30.16,NW,325,5.0,9.0,95,0.00,,,0.07,,2013-03-02 06:01:00,
2013-03-02 00:11:00,31.0,30.0,30.16,NW,325,5.0,9.0,95,0.00,,,0.07,,2013-03-02 06:11:00,
2013-03-02 00:21:00,31.0,30.0,30.15,NNW,342,6.0,11.0,95,0.00,,,0.07,,2013-03-02 06:21:00,
2013-03-02 00:32:00,31.0,30.0,30.16,NNW,334,5.0,8.0,95,0.00,,,0.07,,2013-03-02 06:32:00,
2013-03-02 00:42:00,31.0,30.0,30.16,NNW,334,5.0,8.0,95,0.00,,,0.07,,2013-03-02 06:42:00,
2013-03-02 00:51:00,31.0,30.0,30.16,North,5,6.0,9.0,95,0.00,,,0.07,,2013-03-02 06:51:00,
2013-03-02 01:01:00,31.0,30.0,30.16,NNW,339,3.0,9.0,95,0.00,,,0.07,,2013-03-02 07:01:00,
2013-03-02 01:11:00,31.0,30.0,30.16,NNW,339,3.0,9.0,95,0.00,,,0.07,,2013-03-02 07:11:00,
2013-03-02 01:21:00,31.0,29.0,30.16,NNW,334,4.0,13.0,94,0.00,,,0.07,,2013-03-02 07:21:00,
2013-03-02 01:32:00,31.0,29.0,30.16,NNW,338,6.0,11.0,94,0.00,,,0.06,,2013-03-02 07:32:00,
2013-03-02 01:42:00,31.0,29.0,30.16,NNW,338,6.0,11.0,94,0.00,,,0.06,,2013-03-02 07:42:00,
2013-03-02 01:51:00,30.0,28.0,30.16,NNW,332,6.0,10.0,94,0.00,,,0.06,,2013-03-02 07:51:00,
2013-03-02 02:01:00,30.0,28.0,30.17,NNW,345,5.0,12.0,92,0.00,,,0.06,,2013-03-02 08:01:00,
2013-03-02 02:11:00,30.0,28.0,30.17,NNW,345,5.0,12.0,92,0.00,,,0.06,,2013-03-02 08:11:00,
2013-03-02 02:21:00,30.0,28.0,30.16,NNE,18,6.0,10.0,92,0.00,,,0.06,,2013-03-02 08:21:00,
2013-03-02 02:32:00,30.0,28.0,30.16,NNW,332,6.0,12.0,91,0.00,,,0.06,,2013-03-02 08:32:00,
2013-03-02 02:42:00,30.0,28.0,30.16,NNW,332,6.0,12.0,91,0.00,,,0.06,,2013-03-02 08:42:00,
2013-03-02 02:52:00,30.0,28.0,30.16,NNW,338,5.0,10.0,92,0.00,,,0.06,,2013-03-02 08:52:00,
2013-03-02 03:02:00,30.0,28.0,30.15,NNW,346,5.0,11.0,91,0.00,,,0.06,,2013-03-02 09:02:00,
2013-03-02 03:11:00,30.0,28.0,30.15,NNW,346,5.0,11.0,91,0.00,,,0.06,,2013-03-02 09:11:00,
2013-03-02 03:21:00,30.0,27.0,30.15,NNW,329,8.0,12.0,90,0.00,,,0.06,,2013-03-02 09:21:00,
2013-03-02 03:32:00,30.0,27.0,30.15,NNW,331,7.0,11.0,89,0.00,,,0.06,,2013-03-02 09:32:00,
2013-03-02 03:42:00,30.0,27.0,30.15,NNW,331,7.0,11.0,89,0.00,,,0.06,,2013-03-02 09:42:00,
2013-03-02 03:51:00,30.0,27.0,30.15,North,350,6.0,12.0,90,0.00,,,0.06,,2013-03-02 09:51:00,
2013-03-02 04:01:00,30.0,28.0,30.16,NNW,329,6.0,11.0,91,0.00,,,0.06,,2013-03-02 10:01:00,
2013-03-02 04:16:00,30.0,28.0,30.16,NNW,329,6.0,11.0,91,0.00,,,0.06,,2013-03-02 10:16:00,
2013-03-02 04:22:00,29.0,27.0,30.16,NNW,337,7.0,11.0,91,0.00,,,0.06,,2013-03-02 10:22:00,
2013-03-02 04:32:00,29.0,26.0,30.16,NW,321,6.0,10.0,90,0.00,,,0.06,,2013-03-02 10:32:00,
2013-03-02 04:42:00,29.0,26.0,30.16,NW,321,6.0,10.0,90,0.00,,,0.06,,2013-03-02 10:42:00,
2013-03-02 04:52:00,30.0,27.0,30.16,NW,315,7.0,12.0,89,0.00,,,0.06,,2013-03-02 10:52:00,
2013-03-02 05:01:00,30.0,27.0,30.16,NNW,330,5.0,12.0,88,0.00,,,0.06,,2013-03-02 11:01:00,
2013-03-02 05:11:00,30.0,27.0,30.16,NNW,330,5.0,12.0,88,0.00,,,0.06,,2013-03-02 11:11:00,
2013-03-02 05:21:00,29.0,26.0,30.17,NNW,342,8.0,12.0,87,0.00,,,0.06,,2013-03-02 11:21:00,
2013-03-02 05:32:00,29.0,25.0,30.17,North,360,7.0,11.0,86,0.00,,,0.06,,2013-03-02 11:32:00,
2013-03-02 05:42:00,29.0,25.0,30.17,North,360,7.0,11.0,86,0.00,,,0.06,,2013-03-02 11:42:00,
2013-03-02 05:52:00,29.0,25.0,30.17,NNW,338,6.0,11.0,86,0.00,,,0.06,,2013-03-02 11:52:00,
2013-03-02 06:02:00,29.0,25.0,30.17,NNW,344,6.0,11.0,86,0.00,,,0.06,,2013-03-02 12:02:00,
2013-03-02 06:11:00,29.0,25.0,30.17,NNW,344,6.0,11.0,86,0.00,,,0.06,,2013-03-02 12:11:00,
2013-03-02 06:21:00,29.0,26.0,30.18,NNW,336,6.0,9.0,87,0.00,,,0.06,,2013-03-02 12:21:00,
2013-03-02 06:33:00,29.0,26.0,30.18,North,350,5.0,9.0,87,0.00,,,0.06,,2013-03-02 12:33:00,
2013-03-02 06:43:00,29.0,26.0,30.18,North,350,5.0,9.0,87,0.00,,,0.06,,2013-03-02 12:43:00,
2013-03-02 06:53:00,29.0,26.0,30.19,NNW,348,6.0,10.0,87,0.00,,,0.06,,2013-03-02 12:53:00,
2013-03-02 07:01:00,29.0,26.0,30.19,NNW,338,5.0,9.0,87,0.00,,,0.06,,2013-03-02 13:01:00,
2013-03-02 07:11:00,29.0,26.0,30.19,NNW,338,5.0,9.0,87,0.00,,,0.06,,2013-03-02 13:11:00,
2013-03-02 07:22:00,29.0,26.0,30.19,NNW,333,5.0,8.0,87,0.00,,,0.06,,2013-03-02 13:22:00,
2013-03-02 07:32:00,29.0,25.0,30.20,NNW,327,4.0,11.0,86,0.00,,,0.06,,2013-03-02 13:32:00,
2013-03-02 07:42:00,29.0,25.0,30.20,NNW,327,4.0,11.0,86,0.00,,,0.06,,2013-03-02 13:42:00,
2013-03-02 07:52:00,29.0,25.0,30.20,NNW,343,3.0,7.0,86,0.00,,,0.06,,2013-03-02 13:52:00,
2013-03-02 08:01:00,29.0,25.0,30.21,NW,320,4.0,8.0,86,0.00,,,0.06,,2013-03-02 14:01:00,
2013-03-02 08:11:00,29.0,25.0,30.21,NW,320,4.0,8.0,86,0.00,,,0.06,,2013-03-02 14:11:00,
2013-03-02 08:21:00,29.0,25.0,30.22,NW,319,3.0,10.0,86,0.00,,,0.06,,2013-03-02 14:21:00,
2013-03-02 08:32:00,29.0,26.0,30.22,NW,318,4.0,7.0,87,0.00,,,0.06,,2013-03-02 14:32:00,
2013-03-02 08:42:00,29.0,26.0,30.22,NW,318,4.0,7.0,87,0.00,,,0.06,,2013-03-02 14:42:00,
2013-03-02 08:52:00,29.0,25.0,30.22,North,355,6.0,10.0,86,0.00,,,0.06,,2013-03-02 14:52:00,
2013-03-02 09:02:00,29.0,25.0,30.22,NNW,341,6.0,12.0,85,0.00,,,0.06,,2013-03-02 15:02:00,
2013-03-02 09:11:00,29.0,25.0,30.22,NNW,341,6.0,12.0,85,0.00,,,0.06,,2013-03-02 15:11:00,
2013-03-02 09:21:00,29.0,25.0,30.22,NNW,337,6.0,11.0,84,0.00,,,0.06,,2013-03-02 15:21:00,
2013-03-02 09:32:00,29.0,25.0,30.22,NNW,334,8.0,12.0,86,0.00,,,0.04,,2013-03-02 15:32:00,
2013-03-02 09:42:00,29.0,25.0,30.22,NNW,334,8.0,12.0,86,0.00,,,0.04,,2013-03-02 15:42:00,
2013-03-02 09:52:00,29.0,25.0,30.22,NNW,331,6.0,11.0,86,0.00,,,0.04,,2013-03-02 15:52:00,
2013-03-02 10:01:00,30.0,26.0,30.23,NNW,344,7.0,11.0,86,0.00,,,0.04,,2013-03-02 16:01:00,
2013-03-02 10:11:00,30.0,26.0,30.23,NNW,344,7.0,11.0,86,0.00,,,0.04,,2013-03-02 16:11:00,
2013-03-02 10:21:00,29.0,26.0,30.23,NNW,341,8.0,11.0,87,0.00,,,0.04,,2013-03-02 16:21:00,
2013-03-02 10:32:00,29.0,25.0,30.23,NNW,344,9.0,14.0,86,0.00,,,0.01,,2013-03-02 16:32:00,
2013-03-02 10:42:00,29.0,25.0,30.23,NNW,344,9.0,14.0,86,0.00,,,0.01,,2013-03-02 16:42:00,
2013-03-02 10:51:00,30.0,27.0,30.23,NNW,338,9.0,13.0,87,0.00,,,0.01,,2013-03-02 16:51:00,
2013-03-02 11:01:00,29.0,26.0,30.24,NNW,344,5.0,11.0,87,0.00,,,0.01,,2013-03-02 17:01:00,
2013-03-02 11:11:00,29.0,26.0,30.24,NNW,344,5.0,11.0,87,0.00,,,0.01,,2013-03-02 17:11:00,
2013-03-02 11:21:00,29.0,26.0,30.23,NW,325,6.0,11.0,87,0.00,,,0.01,,2013-03-02 17:21:00,
2013-03-02 11:32:00,30.0,27.0,30.23,NNW,329,6.0,12.0,87,0.01,,,0.01,,2013-03-02 17:32:00,
2013-03-02 11:42:00,30.0,27.0,30.23,NNW,329,6.0,12.0,87,0.01,,,0.01,,2013-03-02 17:42:00,
2013-03-02 11:52:00,31.0,27.0,30.23,NW,309,7.0,13.0,85,0.01,,,0.01,,2013-03-02 17:52:00,
2013-03-02 12:02:00,31.0,26.0,30.23,NNW,331,9.0,14.0,81,0.01,,,0.01,,2013-03-02 18:02:00,
2013-03-02 12:11:00,31.0,26.0,30.23,NNW,331,9.0,14.0,81,0.01,,,0.01,,2013-03-02 18:11:00,
2013-03-02 12:22:00,32.0,27.0,30.22,NW,318,5.0,13.0,81,0.01,,,0.01,,2013-03-02 18:22:00,
2013-03-02 12:32:00,31.0,26.0,30.22,NNW,337,6.0,11.0,81,0.00,,,0.01,,2013-03-02 18:32:00,
2013-03-02 12:42:00,31.0,26.0,30.22,NNW,337,6.0,11.0,81,0.00,,,0.01,,2013-03-02 18:42:00,
2013-03-02 12:52:00,31.0,26.0,30.22,NNW,338,6.0,12.0,83,0.00,,,0.01,,2013-03-02 18:52:00,
2013-03-02 13:01:00,31.0,26.0,30.22,NW,320,9.0,14.0,82,0.00,,,0.01,,2013-03-02 19:01:00,
2013-03-02 13:11:00,31.0,26.0,30.22,NW,320,9.0,14.0,82,0.00,,,0.01,,2013-03-02 19:11:00,
2013-03-02 13:21:00,31.0,26.0,30.21,North,360,5.0,10.0,81,0.00,,,0.01,,2013-03-02 19:21:00,
2013-03-02 13:32:00,31.0,27.0,30.21,WNW,300,6.0,10.0,84,0.00,,,0.01,,2013-03-02 19:32:00,
2013-03-02 13:42:00,31.0,27.0,30.21,WNW,300,6.0,10.0,84,0.00,,,0.01,,2013-03-02 19:42:00,
2013-03-02 13:52:00,31.0,27.0,30.21,NNE,15,6.0,12.0,85,0.00,,,0.01,,2013-03-02 19:52:00,
2013-03-02 14:01:00,30.0,26.0,30.21,North,355,6.0,13.0,86,0.00,,,0.01,,2013-03-02 20:01:00,
2013-03-02 14:11:00,30.0,26.0,30.21,North,355,6.0,13.0,86,0.00,,,0.01,,2013-03-02 20:11:00,
2013-03-02 14:22:00,31.0,27.0,30.20,NNW,339,6.0,12.0,84,0.00,,,0.01,,2013-03-02 20:22:00,
2013-03-02 14:32:00,30.0,26.0,30.21,North,355,7.0,12.0,84,0.00,,,0.01,,2013-03-02 20:32:00,
2013-03-02 14:42:00,30.0,26.0,30.21,North,355,7.0,12.0,84,0.00,,,0.01,,2013-03-02 20:42:00,
2013-03-02 14:52:00,30.0,26.0,30.21,North,5,5.0,11.0,85,0.00,,,0.01,,2013-03-02 20:52:00,
2013-03-02 15:02:00,30.0,26.0,30.21,NNW,338,8.0,14.0,84,0.00,,,0.01,,2013-03-02 21:02:00,
2013-03-02 15:11:00,30.0,26.0,30.21,NNW,338,8.0,14.0,84,0.00,,,0.01,,2013-03-02 21:11:00,
2013-03-02 15:22:00,31.0,27.0,30.21,NW,314,6.0,12.0,84,0.00,,,0.01,,2013-03-02 21:22:00,
2013-03-02 15:32:00,31.0,26.0,30.21,NNW,340,6.0,12.0,81,0.00,,,0.01,,2013-03-02 21:32:00,
2013-03-02 15:42:00,31.0,26.0,30.21,NNW,340,6.0,12.0,81,0.00,,,0.01,,2013-03-02 21:42:00,
2013-03-02 15:52:00,31.0,26.0,30.22,WNW,302,6.0,13.0,81,0.00,,,0.01,,2013-03-02 21:52:00,
2013-03-02 16:02:00,31.0,26.0,30.22,WNW,300,4.0,8.0,83,0.00,,,0.01,,2013-03-02 22:02:00,
2013-03-02 16:11:00,31.0,26.0,30.22,WNW,300,4.0,8.0,83,0.00,,,0.01,,2013-03-02 22:11:00,
2013-03-02 16:22:00,31.0,25.0,30.22,NW,320,6.0,11.0,78,0.00,,,0.01,,2013-03-02 22:22:00,
2013-03-02 16:32:00,31.0,25.0,30.22,WNW,294,5.0,8.0,78,0.00,,,0.01,,2013-03-02 22:32:00,
2013-03-02 16:42:00,31.0,25.0,30.22,WNW,294,5.0,8.0,78,0.00,,,0.01,,2013-03-02 22:42:00,
2013-03-02 16:51:00,30.0,26.0,30.23,NW,312,5.0,10.0,86,0.00,,,0.01,,2013-03-02 22:51:00,
2013-03-02 17:01:00,30.0,26.0,30.23,North,355,6.0,12.0,84,0.00,,,0.01,,2013-03-02 23:01:00,
2013-03-02 17:11:00,30.0,26.0,30.23,NNW,344,7.0,11.0,84,0.00,,,0.01,,2013-03-02 23:11:00,
2013-03-02 17:21:00,30.0,26.0,30.23,NNW,344,7.0,11.0,84,0.00,,,0.01,,2013-03-02 23:21:00,
2013-03-02 17:32:00,29.0,26.0,30.23,WNW,292,4.0,12.0,87,0.00,,,0.01,,2013-03-02 23:32:00,
2013-03-02 17:42:00,29.0,26.0,30.23,WNW,292,4.0,12.0,87,0.00,,,0.01,,2013-03-02 23:42:00,
2013-03-02 17:52:00,29.0,26.0,30.23,NNW,347,3.0,7.0,87,0.00,,,0.01,,2013-03-02 23:52:00,
2013-03-02 18:02:00,29.0,26.0,30.23,NNW,347,3.0,7.0,87,0.00,,,0.01,,2013-03-03 00:02:00,
2013-03-02 18:11:00,29.0,26.0,30.23,NNW,347,3.0,7.0,87,0.00,,,0.01,,2013-03-03 00:11:00,
2013-03-02 18:22:00,30.0,25.0,30.24,NNW,335,6.0,10.0,80,0.00,,,0.01,,2013-03-03 00:22:00,
2013-03-02 18:32:00,30.0,25.0,30.24,NW,312,1.0,8.0,81,0.00,,,0.01,,2013-03-03 00:32:00,
2013-03-02 18:42:00,30.0,25.0,30.24,NW,312,1.0,8.0,81,0.00,,,0.01,,2013-03-03 00:42:00,
2013-03-02 18:52:00,30.0,25.0,30.24,NW,316,5.0,8.0,81,0.00,,,0.01,,2013-03-03 00:52:00,
2013-03-02 19:01:00,30.0,25.0,30.24,NNW,333,3.0,8.0,81,0.00,,,0.01,,2013-03-03 01:01:00,
2013-03-02 19:11:00,30.0,25.0,30.24,NNW,333,3.0,8.0,81,0.00,,,0.01,,2013-03-03 01:11:00,
2013-03-02 19:21:00,30.0,24.0,30.24,West,279,5.0,9.0,79,0.00,,,0.01,,2013-03-03 01:21:00,
2013-03-02 19:32:00,30.0,24.0,30.24,NNW,333,5.0,10.0,78,0.00,,,0.01,,2013-03-03 01:32:00,
2013-03-02 19:42:00,30.0,24.0,30.24,NNW,333,5.0,10.0,78,0.00,,,0.01,,2013-03-03 01:42:00,
2013-03-02 19:52:00,30.0,24.0,30.24,NNW,333,4.0,7.0,78,0.00,,,0.01,,2013-03-03 01:52:00,
2013-03-02 20:01:00,30.0,24.0,30.24,NNW,333,0.0,6.0,79,0.00,,,0.01,,2013-03-03 02:01:00,
2013-03-02 20:11:00,30.0,24.0,30.24,NNW,333,0.0,6.0,79,0.00,,,0.01,,2013-03-03 02:11:00,
2013-03-02 20:21:00,30.0,24.0,30.24,North,355,2.0,6.0,78,0.00,,,0.01,,2013-03-03 02:21:00,
2013-03-02 20:32:00,30.0,24.0,30.24,NNW,341,0.0,4.0,77,0.00,,,0.01,,2013-03-03 02:32:00,
2013-03-02 20:42:00,30.0,24.0,30.24,NNW,341,0.0,4.0,77,0.00,,,0.01,,2013-03-03 02:42:00,
2013-03-02 20:52:00,30.0,23.0,30.24,WNW,303,1.0,7.0,75,0.00,,,0.01,,2013-03-03 02:52:00,
2013-03-02 21:01:00,30.0,22.0,30.24,NNW,335,4.0,8.0,71,0.00,,,0.01,,2013-03-03 03:01:00,
2013-03-02 21:11:00,30.0,22.0,30.24,NNW,335,4.0,8.0,71,0.00,,,0.01,,2013-03-03 03:11:00,
2013-03-02 21:21:00,29.0,22.0,30.25,WNW,290,2.0,7.0,74,0.00,,,0.01,,2013-03-03 03:21:00,
2013-03-02 21:31:00,29.0,22.0,30.25,NW,312,1.0,7.0,74,0.00,,,0.01,,2013-03-03 03:31:00,
2013-03-02 21:42:00,29.0,22.0,30.25,NW,312,1.0,7.0,74,0.00,,,0.01,,2013-03-03 03:42:00,
2013-03-02 21:51:00,28.0,21.0,30.25,NW,309,1.0,5.0,74,0.00,,,0.01,,2013-03-03 03:51:00,
2013-03-02 22:01:00,28.0,21.0,30.25,NNW,330,0.0,5.0,75,0.00,,,0.01,,2013-03-03 04:01:00,
2013-03-02 22:11:00,28.0,21.0,30.25,NNW,330,0.0,5.0,75,0.00,,,0.01,,2013-03-03 04:11:00,
2013-03-02 22:21:00,28.0,21.0,30.25,NW,314,1.0,6.0,75,0.00,,,0.01,,2013-03-03 04:21:00,
2013-03-02 22:32:00,27.0,20.0,30.25,NW,304,0.0,5.0,76,0.00,,,0.01,,2013-03-03 04:32:00,
2013-03-02 22:42:00,27.0,20.0,30.25,NW,304,0.0,5.0,76,0.00,,,0.01,,2013-03-03 04:42:00,
2013-03-02 22:51:00,27.0,20.0,30.25,NW,309,2.0,4.0,76,0.00,,,0.01,,2013-03-03 04:51:00,
2013-03-02 23:02:00,27.0,20.0,30.25,NNW,330,0.0,5.0,76,0.00,,,0.01,,2013-03-03 05:02:00,
2013-03-02 23:11:00,27.0,20.0,30.25,NNW,330,0.0,5.0,76,0.00,,,0.01,,2013-03-03 05:11:00,
2013-03-02 23:22:00,27.0,21.0,30.25,NW,326,0.0,5.0,77,0.00,,,0.01,,2013-03-03 05:22:00,
2013-03-02 23:32:00,27.0,21.0,30.25,NNW,338,1.0,6.0,78,0.00,,,0.01,,2013-03-03 05:32:00,
2013-03-02 23:42:00,27.0,21.0,30.25,NNW,338,1.0,6.0,78,0.00,,,0.01,,2013-03-03 05:42:00,
2013-03-02 23:52:00,27.0,21.0,30.25,NNW,333,3.0,6.0,78,0.00,,,0.01,,2013-03-03 05:52:00,